Airfield :
LOGIN :

Register | Disclaimer

   EN    FR    IT 

 










Legend :    VFR   Marginal VFR   IFR   Intensive IFR   Very Intensive IFR
Visi :
Ceiling :
>= 8 km
>= 3000ft
5 to 8 km
1000 to 3000 ft
1500m to 5 km
500 to 1000 ft
800 to 1500m
200 to 500 ft
< 800m
< 200 ft
Symbols :   Thunderstorms  Fog  Heavy snow  Heavy precipitations  Wind > 20 kt
SIGMETs :     Misc.  Thunderstorms  Icing  Turbulence  Mountain Waves  Volcanic Ashes







- Airport Elevation : 468 ft
- IATA code : GRO


LEGE - Girona Costa Brava

CURRENT METAR :
  • 180300Z 03003KT 9999 FEW040 17/16 Q1014

EXPIRED METARs :
  • 180230Z 23001KT 9999 FEW040 17/16 Q1014
  • 180200Z 01001KT 9999 FEW040 17/16 Q1014
  • 180130Z VRB02KT 9999 FEW040 17/16 Q1014
  • 180100Z 25004KT 9999 FEW040 17/16 Q1014
  • 180030Z VRB02KT 9999 FEW040 17/16 Q1014

TAF TAF LEGE
Valid from the 18 at 00:00 until the 19 at 00:00 UTC


172300Z 1800/1824 VRB03KT 9999 FEW040 TX31/1813Z TN18/1806Z
BECMG 1808/1810 08008KT
PROB40
TEMPO 1812/1820 32015KT 3000 TSRA SCT030CB
BECMG 1814/1817 VRB04KT
No reported NOTAMs for that airfield.



MET'MAP, your aeronautical weather chart ! - Copyright ORBIFLY December 2007 - Disclaimer

ORBIFLY MET'MAP TEAM :

Programming & Development : Alexandra Zaïnal
Concept & Development : Baudouin d'Aumeries
Co-Development & Prog : Marc-Olivier Méhu
Technical & hardware support : Manuel Goepfert

Contact : metmap@orbifly.com




SOURCES & CREDITS :

   NOAA